Location: Doughton Park
(36.4224°N, 81.1835°W)
Time: 12:51:57
(UTC-04:00)

ISS - All Passes

Search period start: 31 March 2015 00:00
Search period end: 10 April 2015 00:00
Orbit: 396 x 405 km, 51.6° (Epoch: 31 March)

Date Brightness Start Highest point End Pass type
(mag) Time Alt. Az. Time Alt. Az. Time Alt. Az.
31 Mar - 04:41:20 10° NNW 04:43:38 18° NNE 04:45:58 10° ENE visible
31 Mar - 06:17:06 10° WNW 06:20:14 49° SW 06:23:21 10° SSE visible
31 Mar - 21:19:06 10° SSE 21:21:07 16° SE 21:23:14 10° E night (unlit)
31 Mar - 22:54:12 10° WSW 22:57:18 41° NW 23:00:25 10° NE night (unlit)
01 Apr - 03:48:36 10° N 03:49:54 12° NNE 03:51:15 10° NE night (unlit)
01 Apr - 05:23:35 10° NW 05:26:49 71° NE 05:30:01 10° SE visible
01 Apr - 22:00:32 10° SW 22:03:47 88° NW 22:07:03 10° NE visible
01 Apr - 23:38:54 10° NW 23:40:37 13° NNW 23:42:17 10° N night (unlit)
02 Apr - 04:30:16 10° NNW 04:33:16 34° NE 04:36:15 10° ESE visible
02 Apr - 06:07:06 10° W 06:09:30 19° SW 06:11:50 10° S visible
02 Apr - 21:07:16 10° SSW 21:10:20 39° SE 21:13:24 10° ENE visible
02 Apr - 22:44:17 10° W 22:46:51 21° NNW 22:49:23 10° NNE visible
03 Apr - 03:37:06 10° NNW 03:39:34 20° NNE 03:42:04 10° E night (unlit)
03 Apr - 05:13:01 10° WNW 05:16:06 41° SW 05:19:08 10° SSE visible
03 Apr - 20:14:35 10° S 20:16:54 19° SE 20:19:18 10° E visible
03 Apr - 21:50:05 10° WSW 21:53:08 36° NW 21:56:11 10° NNE visible
04 Apr - 02:44:11 10° N 02:45:45 13° NNE 02:47:23 10° NE night (unlit)
04 Apr - 04:19:22 10° NW 04:22:36 85° NE 04:25:49 10° SE night (unlit)
04 Apr - 20:56:15 10° SW 20:59:30 75° NW 21:02:46 10° NE visible
04 Apr - 22:34:54 10° NW 22:36:23 12° NNW 22:37:49 10° N visible
05 Apr - 03:25:54 10° NW 03:28:58 39° NE 03:32:02 10° ESE night (unlit)
05 Apr - 05:03:00 10° W 05:05:09 16° SW 05:07:13 10° S night (unlit)
05 Apr - 20:02:48 10° SSW 20:05:56 47° SE 20:09:05 10° ENE daylight
05 Apr - 21:40:05 10° WNW 21:42:30 19° NNW 21:44:53 10° NNE visible
06 Apr - 02:32:36 10° NNW 02:35:13 22° NNE 02:37:50 10° E night (unlit)
06 Apr - 04:08:41 10° WNW 04:11:40 35° SW 04:14:38 10° SSE night (unlit)
06 Apr - 19:09:51 10° S 19:12:24 21° SE 19:15:00 10° ENE daylight
06 Apr - 20:45:43 10° W 20:48:41 31° NW 20:51:39 10° NNE visible
07 Apr - 01:39:31 10° N 01:41:19 14° NNE 01:43:10 10° ENE night (unlit)
07 Apr - 03:14:51 10° NW 03:18:05 82° SW 03:21:18 10° SE night (unlit)
07 Apr - 18:18:38 10° SE 18:18:53 10° SE 18:19:19 10° ESE daylight
07 Apr - 19:51:42 10° WSW 19:54:56 64° NW 19:58:10 10° NE daylight
07 Apr - 21:30:41 10° NW 21:31:52 11° NNW 21:33:00 10° N visible
08 Apr - 02:21:15 10° NW 02:24:23 45° NE 02:27:30 10° ESE night (unlit)
08 Apr - 03:58:40 10° W 04:00:30 14° SW 04:02:15 10° SSW night (unlit)
08 Apr - 18:58:02 10° SW 19:01:14 56° SE 19:04:27 10° ENE daylight
08 Apr - 20:35:36 10° WNW 20:37:52 17° NNW 20:40:06 10° NNE visible
09 Apr - 01:27:49 10° NNW 01:30:33 24° NNE 01:33:17 10° E night (unlit)
09 Apr - 03:04:03 10° WNW 03:06:56 30° SW 03:09:48 10° SSE night (unlit)
09 Apr - 18:04:54 10° S 18:07:37 25° SE 18:10:21 10° ENE daylight
09 Apr - 19:41:03 10° W 19:43:56 28° NNW 19:46:48 10° NNE daylight
